Other Public Products
Issued by NWS Grand Forks, ND

Home | Current Version | Previous Version | Graphics & Text | Print | Product List | Glossary On
Versions: 1 2 3 4 5 6 7 8 9 10 11 12 13 14 15 16 17 18 19 20 21 22 23 24 25 26 27 28 29 30 31 32 33 34 35 36 37 38 39 40 41 42 43 44 45 46 47 48 49 50
000
FPUS83 KFGF 281310
OPUFGF
PRAIRIE TO PINES WEATHER ROUNDUP
NATIONAL WEATHER SERVICE EASTERN NORTH DAKOTA/GRAND FORKS ND
800 AM CDT SAT MAR 28 2015

 **SATELLITE DATA USED TO AUGMENT SKY COVER AT AUTOMATED STATIONS**
 *****  WEATHER ACROSS EASTERN NORTH DAKOTA  *****

CITY           SKY/WX    TMP DP  RH WIND       PRES   REMARKS
GRAND FORKS    PTCLDY    23  17  78 S10       30.09S WCI  12
GRAND FORKS AF NOT AVBL
GRAND CITY NWS   N/A     23 N/A N/A S15         N/A  WCI  10
BUXTON         NOT AVBL
DEVILS LAKE    CLOUDY    28  27  93 S14       29.98F WCI  17
FARGO          PTCLDY    27  19  72 SE15      30.12S WCI  15
WAHPETON ARPT  MOSUNNY   25  19  80 SE9       30.14S WCI  15
$$

 *****  WEATHER ACROSS CENTRAL AND WESTERN NORTH DAKOTA  *****

CITY           SKY/WX    TMP DP  RH WIND       PRES   REMARKS
JAMESTOWN      CLOUDY    30  27  88 S13       30.02F WCI  20
BISMARCK       FOG       28  28 100 SE12      29.96F VSB 1/4 WCI  18
MINOT          FOG       28  26  92 SE8       29.87F VSB 1/2 WCI  20
MINOT AFB      FRZ DRZL  28  28 100 SE13      29.86F VSB 1/2 WCI  17
GARRISON         N/A     29  28  96 SE10      29.89F WCI  20
WILLISTON      CLEAR     38  33  82 S5        29.78F
DICKINSON      CLEAR     38  32  79 S15       29.83F
HETTINGER      CLEAR     37  31  78 SE8       29.90S
$$

 *****  OTHER OBSERVATIONS NORTHEAST NORTH DAKOTA  *****

CITY           SKY/WX    TMP DP  RH WIND       PRES   REMARKS
WALHALLA         N/A     25  25 100 S9        30.03F WCI  15
LANGDON        NOT AVBL
CAVALIER         N/A     25  23  93 S12       30.04F WCI  14
GRAFTON        NOT AVBL
CANDO          NOT AVBL
FORT TOTTEN      N/A     29  29 100 S10       29.95S WCI  20
ROLLA          FOG       28  28 100 S18G36    29.93S VSB 1/4 WCI  16
RUGBY          FOG       28  28 100 S14G20    29.93F VSB 1   WCI  17
 ***** THE ABOVE OBSERVATIONS ARE NON NWS ARE NOT QUALITY
        CONTROLLED AND MAY MIS-REPORT RAIN FOR SNOW...
$$

 *****  OTHER OBSERVATIONS SOUTHEAST NORTH DAKOTA *****

CITY           SKY/WX    TMP DP  RH WIND       PRES   REMARKS
COOPERSTOWN    NOT AVBL
VALLEY CITY    CLOUDY    25  25 100 S10       30.05S WCI  15
OAKES            N/A     30  30 100 S8        30.07S WCI  23
GWINNER          N/A     27  27 100 SE8         N/A  WCI  18
SHEYENNE NWR     N/A     25  21  86 S7        29.95S WCI  17
BUFFALO        NOT AVBL
WYNDMERE         N/A     25  21  86 SE6         N/A  WCI  18
 ***** THE ABOVE OBSERVATIONS ARE NON NWS ARE NOT QUALITY
       CONTROLLED AND MAY MIS-REPORT RAIN FOR SNOW...
$$

  *****  WEATHER ACROSS NORTHERN MINNESOTA  *****

CITY           SKY/WX    TMP DP  RH WIND       PRES   REMARKS
FLAG ISLAND    PTCLDY    16  10  79 SE5       30.11R WCI   9
WARROAD        PTCLDY    23  18  80 S6        30.11S WCI  16
ROSEAU         PTCLDY    23  18  80 S7        30.11R WCI  15
HALLOCK        PTCLDY    23  19  86 S12       30.07F WCI  12
THF RVR FALLS  CLEAR     23  18  80 S7        30.11S WCI  15
HALSTAD        NOT AVBL
FOSSTON        PTCLDY    21  12  68 SE6       30.13R WCI  14
BAUDETTE       PTCLDY    18  12  77 SE3       30.12R
WASKISH        MOCLDY    18  16  93 CALM      30.13S
CROOKSTON      PTCLDY    25  19  80 S14       30.12S WCI  13
$$
  *****  WEATHER ACROSS CENTRAL AND WEST MINNESOTA  *****

CITY           SKY/WX    TMP DP  RH WIND       PRES   REMARKS
BEMIDJI        PTCLDY    17  11  78 S3        30.13S
PARK RAPIDS    MOCLDY    20  12  71 SE7       30.13S WCI  11
WADENA         PTCLDY    19  14  79 SE3       30.15S
DETROIT LAKES  CLEAR     21  18  86 SE5       30.13F WCI  15
MOORHEAD       PTCLDY    25  21  86 SE10      30.13F WCI  15
FERGUS FALLS   CLEAR     25  18  74 SE9       30.17S WCI  15
ELBOW LAKE     FAIR      22  18  85 SE7       30.15R WCI  14
MORRIS MN      CLEAR     25  21  86 SE9       30.15R WCI  15
STAPLES        PTCLDY    18  12  79 SE3       30.16S
WHEATON        MOCLDY    25  21  86 SE8       30.16S WCI  16
$$
  *****  WEATHER ELSEWHERE ACROSS MINNESOTA  *****

CITY           SKY/WX    TMP DP  RH WIND       PRES   REMARKS
DULUTH         SUNNY     20  14  77 VRB3      30.19R
INTRNTL FALLS  CLEAR     15   8  73 CALM      30.15R
ELY            SUNNY      9   5  85 CALM      30.18S
CLOQUET        CLEAR     16  12  86 CALM      30.20R
BRAINERD       CLEAR     15  12  88 CALM      30.19R
HIBBING        CLEAR     11   5  77 CALM      30.19R
ALEXANDRIA     CLEAR     23  16  74 SE7       30.16R WCI  15
SAINT CLOUD    CLEAR     21  11  65 SE6       30.21R WCI  13
MINNEAPOLIS    PTCLDY    22  11  62 SE7       30.25R WCI  13
$$

  *****  WEATHER ACROSS SOUTH DAKOTA  *****

CITY           SKY/WX    TMP DP  RH WIND       PRES   REMARKS
SIOUX FALLS    PTCLDY    29  26  89 SE8       30.12R WCI  21
BROOKINGS      NOT AVBL
WATERTOWN      CLOUDY    29  24  82 S9        30.09R WCI  20
HURON          PTCLDY    29  24  82 SE8       30.08S WCI  21
SISSETON         N/A     23  22  96 S6        30.12R WCI  16
ABERDEEN       CLOUDY    32  26  78 S12       30.08R WCI  23
MITCHELL       PTCLDY    28  23  81 SE12      30.09R WCI  18
PIERRE         CLEAR     22  21  96 E7        29.99R FOG     WCI  13
MOBRIDGE       CLEAR     24  21  88 E10       29.96S WCI  14
RAPID CITY     CLEAR     37  31  78 SE3       29.92S
$$

  *****  SOME WEATHER IN NEARBY STATES *****

CITY           SKY/WX    TMP DP  RH WIND       PRES   REMARKS
GLASGOW MT     CLEAR     37  32  82 E12       29.69F
GREAT FALLS MT PTCLDY    49  32  52 SW12      29.68F
CHEYENNE WY    CLEAR     39  23  52 W9        30.09S
SCOTTSBLUFF NE CLEAR     32  25  75 CALM      30.00R
OMAHA NE       PTCLDY    33  26  75 SE9       30.14R
DES MOINES IA  CLOUDY    32  14  47 SE7       30.21R
DAVENPORT IA   SUNNY     22  15  75 SE7       30.30R WCI  13
CHICAGO IL     MOSUNNY   24  14  65 N5        30.29R WCI  18
EAU CLAIRE WI  SUNNY     19  15  84 CALM      30.26R
LA CROSSE WI   SUNNY     23  17  78 E3        30.28R
$$

  *****  SOME NATIONAL WEATHER *****

CITY           SKY/WX    TMP DP  RH WIND       PRES   REMARKS
LA GUARDIA NY  CLOUDY    35  20  54 NW14G23   29.80S
RALEIGH NC     MOSUNNY   38  22  52 N8        30.01R
ATLANTA GA     MOSUNNY   37  26  64 NW12G17   30.11R
NEW ORLEANS LA MOSUNNY   52  37  56 E6        30.23R
OKLAHOMA CITY  PTCLDY    44  38  79 S7        30.03R
ALBUQUERQUE NM PTCLDY    48  20  32 W7        30.24R
SALT LAKE CITY PTCLDY    50  33  52 SE8       30.09R
LOS ANGELES CA FOG       57  57 100 E3        30.06S VSB 1/4
BOISE ID       MOCLDY    58  41  53 W16G24    30.05R
SEATTLE WA     MOCLDY    49  43  80 SW20G29   30.14R
$$

*** WEATHER ACROSS MANITOBA...SASKATCHEWAN AND ONTARIO ***
                ***ONTARIO***

CITY           SKY/WX    TMP DP  RH WIND       PRES   REMARKS
GERALDTON      SUNNY      5  -4  66 SW3       30.15S
THUNDER BAY    MOSUNNY    9   5  85 W6        30.25S WCI  -1
SIOUX LOOKOUT  PTCLDY     7   1  78 S5        30.12S WCI  -2
TORONTO        MOSUNNY   16  -2  45 N20       30.18R WCI  -1
BIG TROUT LK   SUNNY     16   9  73 W8        29.95F WCI   5
PICKLE LAKE    MOSUNNY   10  -2  56 SW7       30.06F WCI   0
DRYDEN         CLEAR     16   3  57 S8        30.11R WCI   5
KENORA         MOCLDY    19   5  53 S7        30.09S WCI  10
$$
                *** MANITOBA***

CITY           SKY/WX    TMP DP  RH WIND       PRES   REMARKS
BRANDON        NOT AVBL
DAUPHIN        CLOUDY    32  28  86 SW12G23   29.84F WCI  23
ISLAND LAKE    NOT AVBL
PILOT MOUND      N/A     28  27  93 S18         N/A  WCI  16
THE PAS        CLOUDY    28  27  93 S13       29.69F WCI  18
THOMPSON       CLOUDY    23  21  93 S10       29.68F WCI  12
WINNIPEG       MOCLDY    25  19  80 S16       30.04F WCI  12
LYNN LAKE      FLURRIES  30  28  93 SW9       29.54F WCI  22
CHURCHILL      MOCLDY    30  21  69 SW17G24   29.51F WCI  18
GILLAM         MOCLDY    19  16  86 SW10      29.71F WCI   8
$$
                ***SASKATCHEWAN***

CITY           SKY/WX    TMP DP  RH WIND       PRES   REMARKS
ESTEVAN        PTCLDY    30  30 100 E12       29.77F WCI  21
KINDERSLEY     CLOUDY    41  36  81 SW6       29.51F
LLOYDMINSTER   PTCLDY    39  36  87 NW17      29.45S
PRINCE ALBERT  CLOUDY    34  32  93 E10       29.53F
REGINA         MOCLDY    34  32  93 SE17G24   29.66F WCI  23



USA.gov is the U.S. government's official web portal to all federal, state and local government web resources and services.